| time (UTC) | temp C | wind direction | speed KPH | gust KPH | rain 1hr cm | rain 24hr cm | rain mn cm | humidity % | barometer mb |
| 20260503223704 | 14 | 6 | 1.6 | 4.8 | 0.00 | 0.00 | 0.00 | 53 | 1015.6 |
| 20260503223204 | 14 | 82 | 1.6 | 14.5 | 0.00 | 0.00 | 0.00 | 51 | 1015.6 |
| 20260503220204 | 15 | 107 | 3.2 | 16.1 | 0.00 | 0.00 | 0.00 | 46 | 1015.7 |
| 20260503210703 | 15 | 50 | 1.6 | 4.8 | 0.00 | 0.00 | 0.00 | 42 | 1016.0 |
| 20260503210204 | 15 | 336 | 4.8 | 8.0 | 0.00 | 0.00 | 0.00 | 40 | 1016.0 |
| 20260503190704 | 16 | 348 | 8.0 | 19.3 | 0.00 | 0.00 | 0.00 | 41 | 1017.2 |
| 20260503173704 | 14 | 348 | 8.0 | 14.5 | 0.00 | 0.00 | 0.00 | 49 | 1017.7 |
| 20260503170204 | 12 | 346 | 6.4 | 16.1 | 0.00 | 0.00 | 0.00 | 57 | 1018.1 |
| 20260503160204 | 9 | 287 | 4.8 | 12.9 | 0.00 | 0.00 | 0.00 | 68 | 1019.3 |
| 20260503150703 | 7 | 325 | 3.2 | 4.8 | 0.00 | 0.00 | 0.00 | 74 | 1019.7 |
| 20260503140205 | 5 | 333 | 0.0 | 0.0 | 0.00 | 0.00 | 0.00 | 83 | 1019.5 |
| 20260503130703 | 5 | 335 | 0.0 | 4.8 | 0.00 | 0.00 | 0.00 | 80 | 1019.2 |
| 20260503120203 | 4 | 213 | 0.0 | 4.8 | 0.00 | 0.00 | 0.00 | 84 | 1019.0 |
| 20260503110704 | 3 | 213 | 1.6 | 3.2 | 0.00 | 0.00 | 0.00 | 89 | 1018.2 |
| 20260503100204 | 3 | 213 | 0.0 | 3.2 | 0.00 | 0.00 | 0.00 | 89 | 1017.5 |
| 20260503090204 | 3 | 213 | 0.0 | 3.2 | 0.00 | 0.00 | 0.00 | 88 | 1016.7 |
| 20260503050704 | 5 | 213 | 0.0 | 0.0 | 0.00 | 0.00 | 0.00 | 82 | 1015.7 |
| 20260503050204 | 5 | 213 | 0.0 | 4.8 | 0.00 | 0.00 | 0.00 | 82 | 1015.8 |
| 20260503043203 | 5 | 213 | 3.2 | 4.8 | 0.00 | 0.00 | 0.00 | 82 | 1015.4 |
| 20260503040203 | 5 | 213 | 3.2 | 4.8 | 0.00 | 0.00 | 0.00 | 80 | 1015.1 |
| 20260503033204 | 5 | 213 | 1.6 | 4.8 | 0.00 | 0.00 | 0.00 | 79 | 1015.1 |
| 20260503030203 | 5 | 213 | 0.0 | 4.8 | 0.00 | 0.00 | 0.00 | 78 | 1015.0 |
| 20260503023203 | 6 | 225 | 3.2 | 4.8 | 0.00 | 0.00 | 0.00 | 77 | 1014.7 |
| 20260503020703 | 6 | 225 | 3.2 | 4.8 | 0.00 | 0.00 | 0.00 | 76 | 1014.4 |
| 20260503020204 | 6 | 225 | 3.2 | 4.8 | 0.00 | 0.00 | 0.00 | 77 | 1014.2 |
| 20260503013203 | 7 | 225 | 3.2 | 4.8 | 0.00 | 0.00 | 0.00 | 73 | 1013.8 |
| 20260503010704 | 7 | 225 | 3.2 | 4.8 | 0.00 | 0.00 | 0.00 | 71 | 1013.5 |
| 20260503003704 | 8 | 225 | 4.8 | 4.8 | 0.00 | 0.00 | 0.00 | 67 | 1013.2 |
| 20260503003204 | 8 | 317 | 1.6 | 3.2 | 0.00 | 0.00 | 0.00 | 66 | 1013.1 |
| 20260503000704 | 9 | 317 | 1.6 | 4.8 | 0.00 | 0.00 | 0.00 | 60 | 1012.8 |
| 20260503000204 | 9 | 333 | 3.2 | 8.0 | 0.00 | 0.00 | 0.00 | 60 | 1012.8 |
| 20260502233204 | 10 | 303 | 4.8 | 19.3 | 0.00 | 0.00 | 0.00 | 55 | 1012.4 |
| 20260502230703 | 11 | 28 | 3.2 | 8.0 | 0.00 | 0.00 | 0.00 | 51 | 1012.0 |
| 20260502230203 | 11 | 334 | 8.0 | 19.3 | 0.00 | 0.00 | 0.00 | 52 | 1011.9 |